Dalhart, TX

6:21 AM CST on January 24, 2018 (GMT -0600)
Dalhart Municipal

Weather History for KDHT - June, 2013

Change the Weather History Date:

Tuesday, June 4, 2013

  Actual Average Record
Temperature  
Mean Temperature 77 °F 69 °F  
Max Temperature 95 °F 84 °F 99 °F (2006)
Min Temperature 59 °F 55 °F 42 °F (1970)
Degree Days  
Heating Degree Days 0 1  
Month to date heating degree days 0 4  
Since 1 June heating degree days 0 4  
Since 1 July heating degree days 4400 4721  
Cooling Degree Days 12 5  
Month to date cooling degree days 33 20  
Year to date cooling degree days 187 92  
Since 1 June cooling degree days 33 20  
Growing Degree Days 27 (Base 50)    
Moisture  
Dew Point 39 °F    
Average Humidity 31    
Maximum Humidity 49    
Minimum Humidity 13    
Precipitation  
Precipitation 0.00 in 0.08 in 1.21 in (1985)
Month to date precipitation 0.00 0.31  
Year to date precipitation 1.30 5.72  
Snow  
Snow 0.00 in 0.00 in 0.00 in ()
Month to date snowfall 0.0 0.0  
Since 1 June snowfall 0.0 0.0  
Since 1 July snowfall 21.6 18.9  
Snow Depth 0.00 in    
Sea Level Pressure  
Sea Level Pressure 29.67 in    
Wind  
Wind Speed 11 mph (NNE)    
Max Wind Speed 25 mph    
Max Gust Speed 29 mph    
Visibility 10 miles    
Events      
T = Trace of Precipitation, MM = Missing Value Source: NWS Daily Summary

Daily Weather History Graph

Daily Weather History Graph

Search for Another Location

Airport or City:

Trip Planner

Search our weather history database for the weather conditions in past years. The results will help you decide how hot, cold, wet, or windy it might be!

Date:

Astronomy

Jun. 04, 2013 Rise Set
Actual Time 6:33 AM CDT 9:03 PM CDT
Civil Twilight 6:03 AM CDT 9:33 PM CDT
Nautical Twilight 5:27 AM CDT 10:10 PM CDT
Astronomical Twilight 4:46 AM CDT 10:51 PM CDT
Moon 3:58 AM CDT (6/4) 5:40 PM CDT (6/4)
Length of Visible Light 15h 29m
Length of Day
14h 29m
Waning Crescent, 14% of the Moon is Illuminated
Jun 4
Waning Crescent
Jun 8
New
Jun 16
First Quarter
Jun 23
Full
Jun 29
Last Quarter

Hourly Weather History & Observations

Time (CDT) Temp. Dew Point Humidity Pressure Visibility Wind Dir Wind Speed Gust Speed Precip Events Conditions
12:53 AM 75.0 °F 37.9 °F 26% 29.62 in 10.0 mi SSW 4.6 mph - N/A   Clear
1:53 AM 71.1 °F 39.0 °F 31% 29.62 in 10.0 mi WNW 10.4 mph - N/A   Clear
2:53 AM 69.1 °F 39.0 °F 33% 29.62 in 10.0 mi West 11.5 mph - N/A   Clear
3:53 AM 69.1 °F 35.1 °F 29% 29.60 in 10.0 mi West 10.4 mph - N/A   Clear
4:53 AM 64.0 °F 34.0 °F 33% 29.62 in 10.0 mi West 6.9 mph - N/A   Clear
5:53 AM 61.0 °F 34.0 °F 36% 29.65 in 10.0 mi NW 8.1 mph - N/A   Clear
6:53 AM 61.0 °F 34.0 °F 36% 29.69 in 10.0 mi NW 3.5 mph - N/A   Clear
7:53 AM 64.9 °F 33.1 °F 31% 29.69 in 10.0 mi NW 8.1 mph - N/A   Clear
8:53 AM 73.9 °F 34.0 °F 23% 29.70 in 10.0 mi NNW 11.5 mph - N/A   Clear
9:53 AM 81.0 °F 37.9 °F 21% 29.71 in 10.0 mi NNW 16.1 mph - N/A   Clear
10:53 AM 87.1 °F 37.0 °F 17% 29.69 in 10.0 mi North 15.0 mph - N/A   Clear
11:53 AM 91.0 °F 35.1 °F 14% 29.70 in 10.0 mi North 16.1 mph - N/A   Clear
12:53 PM 93.0 °F 35.1 °F 13% 29.71 in 10.0 mi NNE 12.7 mph 20.7 mph N/A   Clear
1:53 PM 93.9 °F 36.0 °F 13% 29.71 in 10.0 mi NNE 10.4 mph 21.9 mph N/A   Clear
2:53 PM 93.0 °F 44.1 °F 18% 29.71 in 10.0 mi East 8.1 mph 23.0 mph N/A   Clear
3:53 PM 93.9 °F 41.0 °F 16% 29.69 in 10.0 mi East 11.5 mph 20.7 mph N/A   Clear
4:53 PM 93.9 °F 42.1 °F 17% 29.70 in 10.0 mi NE 11.5 mph - N/A   Partly Cloudy
5:53 PM 93.9 °F 39.0 °F 15% 29.68 in 10.0 mi East 9.2 mph - N/A   Clear
6:53 PM 93.0 °F 37.9 °F 15% 29.68 in 10.0 mi East 13.8 mph - N/A   Clear
7:53 PM 91.0 °F 41.0 °F 17% 29.66 in 10.0 mi ESE 11.5 mph - N/A   Clear
8:53 PM 84.0 °F 39.9 °F 21% 29.66 in 10.0 mi East 8.1 mph - N/A   Clear
9:53 PM 81.0 °F 42.1 °F 25% 29.66 in 10.0 mi ENE 10.4 mph - N/A   Clear
10:53 PM 73.0 °F 51.1 °F 46% 29.70 in 10.0 mi NNE 12.7 mph - N/A   Clear
11:53 PM 72.0 °F 51.1 °F 48% 29.72 in 10.0 mi NNE 13.8 mph - N/A   Clear